KQ4KIJ-13 Weather Reports


Display with metric or nautical units.
time (UTC)temp
F
wind
direction
speed
MPH
gust
MPH
rain 1hr
in
rain 24hr
in
rain mn
in
humidity
%
barometer
mb
20260508223335 64 74 2.0 12.0 0.00 0.00 0.00 59 1015.3
20260508220332 65 174 4.0 13.0 0.00 0.00 0.00 56 1015.2
20260508214728 65 46 2.0 16.0 0.00 0.00 0.00 52 1015.6
20260508210332 66 120 1.0 11.0 0.00 0.00 0.00 52 1015.1
20260508203335 65 56 4.0 12.0 0.00 0.00 0.00 52 1015.2
20260508200329 65 52 2.0 14.0 0.00 0.00 0.00 52 1015.9
20260508193334 65 267 5.0 15.0 0.00 0.00 0.00 50 1016.3
20260508190325 65 184 3.0 11.0 0.00 0.00 0.00 50 1016.9
20260508183326 65 226 7.0 13.0 0.00 0.00 0.00 50 1017.2
20260508180321 65 149 7.0 12.0 0.00 0.00 0.00 49 1017.2
20260508174656 66 112 2.0 11.0 0.00 0.00 0.00 48 1017.7
20260508170318 64 259 2.0 11.0 0.00 0.00 0.00 46 1018.5
20260508163331 62 161 3.0 11.0 0.00 0.00 0.00 44 1019.1
20260508160314 62 172 4.0 7.0 0.00 0.00 0.00 44 1019.4
20260508154711 61 141 1.0 7.0 0.00 0.00 0.00 48 1019.7
20260508151659 59 244 4.0 8.0 0.00 0.00 0.00 48 1019.9
20260508143310 58 65 3.0 6.0 0.00 0.00 0.00 53 1020.4
20260508140306 55 91 3.0 5.0 0.00 0.00 0.00 62 1020.4
20260508133308 55 263 1.0 5.0 0.00 0.00 0.00 73 1020.5
20260508131648 50 201 0.0 5.0 0.00 0.00 0.00 88 1020.5
20260508123305 47 172 2.0 4.0 0.00 0.00 0.00 99 1020.3
20260508120259 45 130 0.0 3.0 0.00 0.00 0.00 99 1020.2
20260508113300 45 218 2.0 6.0 0.00 0.00 0.00 99 1019.7
20260508110255 45 139 2.0 6.0 0.00 0.00 0.00 99 1019.1
20260508103257 44 102 2.0 3.0 0.00 0.00 0.00 99 1018.7
20260508100251 44 52 1.0 4.0 0.00 0.00 0.00 99 1018.4
20260508093253 44 100 1.0 3.0 0.00 0.00 0.00 99 1018.2
20260508090251 45 107 0.0 2.0 0.00 0.00 0.00 99 1018.0
20260508083252 46 114 1.0 5.0 0.00 0.00 0.00 99 1017.8
20260508080247 46 146 2.0 4.0 0.00 0.00 0.00 99 1017.5
20260508073249 46 99 2.0 6.0 0.00 0.00 0.00 99 1017.7
20260508070246 46 116 2.0 6.0 0.00 0.00 0.00 99 1017.3
20260508063247 46 76 0.0 4.0 0.00 0.00 0.00 99 1017.3
20260508060243 46 112 2.0 3.0 0.00 0.00 0.00 99 1017.5
20260508053245 47 78 3.0 4.0 0.00 0.00 0.00 99 1017.6
20260508043244 47 113 0.0 4.0 0.00 0.00 0.00 99 1017.3
20260508040238 47 108 1.0 2.0 0.00 0.00 0.00 99 1017.2
20260508034620 47 81 0.0 3.0 0.00 0.00 0.00 98 1017.6
20260508023239 48 172 2.0 2.0 0.00 0.00 0.00 97 1017.2
20260508020234 49 212 0.0 2.0 0.00 0.00 0.00 96 1017.0
20260508013236 49 111 1.0 3.0 0.00 0.00 0.00 94 1016.6
20260508010233 50 184 1.0 4.0 0.00 0.00 0.00 92 1016.4
20260508003236 52 84 1.0 5.0 0.00 0.00 0.00 88 1016.1
20260508000234 53 75 2.0 7.0 0.00 0.00 0.00 84 1015.6
20260507233233 55 74 3.0 11.0 0.00 0.00 0.00 81 1015.8
20260507231613 55 60 3.0 10.0 0.00 0.00 0.00 81 1015.6